[[{"header":{"parameterUnit":"m.s-1","parameterCategory":1,"la1":30.2991,"la2":30.254,"lo1":-89.0895,"lo2":-89.0444,"dy":0.0017,"dx":0.0017,"nx":28,"ny":28,"refTime":"2025-07-21T21:00:00:Z","depth":0,"parameterNumber":2,"parameterNumberName":"U-component_of_WINDS"},"data":[0,0,0,0,0,0,0,0,0,0,0,0,0,0,0,0,0,0,0,0,0,0,0,0,0,0,0,0,0,0,0,0,0,0,0,0,0,0,0,0,0,0,0,0,0,0,0,0,0,0,0,0,0,0,0,0,0,0,2.2617,2.2618,0,2.2708,2.2709,2.271,2.2691,2.2689,2.2687,2.2686,2.2784,2.2788,2.2792,0,0,0,0,0,0,0,0,0,0,0,0,0,2.2433,2.2437,2.2617,2.2618,2.2619,2.2708,2.2709,2.271,2.2691,2.2689,2.2687,2.2685,2.2782,2.2787,2.2792,0,0,0,0,0,0,0,0,0,0,0,0,0,2.2517,2.2438,2.2617,2.262,2.2621,2.2707,2.2709,2.2711,2.2691,2.2689,2.2686,2.2684,2.2781,2.2787,2.2793,2.2883,0,0,2.2812,2.2815,0,0,0,0,0,0,0,0,2.2513,2.2524,2.2619,2.262,2.2622,2.2685,2.268,2.2769,2.2692,2.2665,2.2686,2.2683,2.2753,2.2762,2.2785,2.2887,2.2892,2.2813,2.2817,2.2819,2.2821,0,0,0,0,0,0,0,2.2507,2.252,2.2653,2.262,2.2622,2.2619,2.2628,2.2697,2.2723,2.2667,2.2666,2.2677,2.2754,2.2779,2.2787,2.2893,2.2813,2.2818,2.2822,2.2825,2.3079,2.3082,0,0,0,0,0,0,2.2499,2.2515,2.265,2.2656,2.256,2.2625,2.2635,2.2667,2.2722,2.2727,2.2679,2.2676,2.2769,2.2779,2.279,2.2902,2.2819,2.2825,2.2829,2.3076,2.3079,2.3083,0,0,0,0,0,0,2.2495,2.2511,2.2646,2.2585,2.2602,2.263,2.2667,2.2671,2.2695,2.273,2.2736,2.2699,2.2767,2.2781,2.2861,2.2905,2.2828,2.2834,2.3072,2.3077,2.3081,2.3124,0,0,0,0,0,0,2.249,2.251,2.2542,2.2586,2.2606,2.2714,2.267,2.2674,2.2706,2.2702,2.2751,2.2756,2.2767,2.2851,2.2867,2.2912,2.2839,2.3069,2.3074,2.308,2.3119,2.313,2.3139,0,0,0,0,0,2.2483,2.2551,2.2544,2.2561,2.2647,2.2716,2.2727,2.2736,2.2709,2.2744,2.2767,2.2755,2.2897,2.286,2.2877,2.2925,2.3066,2.3073,2.3079,2.3115,2.3128,2.3139,0,0,0,0,0,0,2.2513,2.2557,2.255,2.2633,2.2671,2.2713,2.2756,2.2749,2.2796,2.2791,2.2802,2.2813,2.2895,2.2917,2.2875,2.3017,2.2978,2.2989,2.2999,2.3012,2.3021,2.3015,2.2844,0,0,0,0,0,2.2529,2.258,2.2616,2.2686,2.2706,2.2728,2.2758,2.2762,2.2802,2.2818,2.2847,2.2888,2.2942,2.2978,2.3029,2.3122,2.3134,2.3164,2.3173,2.3181,2.3191,2.3246,2.326,2.3105,2.3105,2.3105,0,0,2.2563,2.2594,2.2625,2.2693,2.2723,2.2778,2.2741,2.28,2.2842,2.2828,2.2905,2.2928,2.2974,2.3061,2.3101,2.3083,2.3237,2.319,2.3196,2.3202,2.3254,2.3269,2.3282,2.3109,2.3108,2.3108,0,0,2.2654,2.268,2.2744,2.2775,2.282,2.2834,2.285,2.2893,2.2907,2.2984,2.2976,2.3027,2.3119,2.3154,2.3183,2.329,2.3282,2.3307,2.3359,2.3412,2.3424,2.3435,2.3477,2.3491,2.3316,2.3316,2.3316,0,2.2692,2.2772,2.2778,2.2838,2.287,2.2859,2.2925,2.2955,2.3015,2.3039,2.3017,2.3134,2.3165,2.3262,2.3288,2.3311,2.3332,2.3302,2.3422,2.3433,2.3443,2.3483,2.3498,2.3319,2.3318,2.3318,2.3318,0,2.2818,2.2874,2.292,2.2978,2.3015,2.3078,2.3096,2.3133,2.3134,2.3151,2.3232,2.3268,2.3329,2.3352,2.3353,2.345,2.3438,2.3419,2.338,2.3461,2.3499,2.3514,2.3323,2.3322,2.3321,2.332,0,0,2.293,2.2991,2.3009,2.3037,2.3086,2.3131,2.3195,2.3253,2.3286,2.3328,2.3385,2.3464,2.3448,2.3481,2.3487,2.3533,2.362,2.3509,2.351,2.3531,2.3734,2.375,2.3767,2.3614,2.3617,2.3619,2.3731,0,2.3028,2.3139,2.3147,2.3249,2.3303,2.3294,2.335,2.3388,2.3407,2.3458,2.3479,2.3536,2.3508,2.3529,2.3574,2.3599,2.3661,2.3591,2.367,2.3672,2.3661,2.3786,2.3803,2.3907,2.3745,2.3748,2.3749,0,2.3157,2.3203,2.331,2.3355,2.3378,2.3428,2.3484,2.3531,2.3576,2.3586,2.3625,2.3625,2.3694,2.3651,2.3748,2.3701,2.3733,2.3751,2.3755,2.3765,2.3718,2.3803,2.3939,2.3956,2.3772,2.377,2.3769,0,2.3233,2.3322,2.3398,2.3421,2.3475,2.3511,2.3536,2.3577,2.3613,2.3662,2.3686,2.3742,2.3774,2.3819,2.3836,2.3802,2.3934,2.3891,2.3947,2.3947,2.3977,2.3976,2.4124,2.3993,2.3993,2.3993,2.3992,0,2.3343,2.341,2.3433,2.348,2.3556,2.3566,2.3641,2.3663,2.3701,2.3755,2.375,2.3801,2.3818,2.3872,2.3885,2.3966,2.398,2.3993,2.3996,2.3995,2.3994,2.4018,2.4013,2.3997,2.3996,2.3995,2.3994,0,2.3441,2.3459,2.3542,2.3586,2.3599,2.3653,2.3692,2.374,2.3757,2.3826,2.3842,2.3872,2.3936,2.3956,2.4033,2.4043,2.4138,2.4133,2.4123,2.4124,2.418,2.4176,2.4352,2.4378,2.4227,2.4228,2.423,0,2.3512,2.3563,2.3613,2.3648,2.3674,2.373,2.3766,2.3779,2.3817,2.3873,2.3914,2.3978,2.4029,2.4133,2.4163,2.4223,2.4222,2.4279,2.4231,2.4229,2.4227,2.4225,2.4232,2.4289,2.4291,2.4292,2.4293,0,2.3637,2.3644,2.3695,2.3751,2.3794,2.3839,2.3882,2.3912,2.3931,2.3975,2.404,2.408,2.4159,2.4224,2.4285,2.4313,2.4308,2.4308,2.4325,2.4326,2.4319,2.4327,2.4151,2.4304,2.4303,2.4303,2.4302,2.4301,2.3726,2.3772,2.3815,2.3874,2.3908,2.3949,2.3996,2.402,2.4074,2.4139,2.4144,2.4215,2.4262,2.4344,2.4375,2.4433,2.4416,2.444,2.4446,2.4453,2.4459,2.4307,2.4444,2.4443,2.4443,2.4443,2.4443,0,2.3854,2.3881,2.3935,2.3995,2.4043,2.4031,2.4079,2.412,2.4183,2.4225,2.4276,2.4353,2.4416,2.4451,2.4515,2.4555,2.4554,2.4571,2.457,2.4577,2.4468,2.4449,2.4571,2.4571,2.4571,2.4571,2.4571,2.4571,2.3926,2.4005,2.4017,2.4114,2.4141,2.421,2.4239,2.4278,2.4313,2.4399,2.445,2.4472,2.4513,2.458,2.4638,2.4647,2.4672,2.4692,2.47,2.4598,2.4585,2.4572,2.4554,2.4696,2.4696,2.4804,2.4805,2.4806]},{"header":{"parameterUnit":"m.s-1","parameterCategory":1,"la1":30.2991,"la2":30.254,"lo1":-89.0895,"lo2":-89.0444,"dy":0.0017,"dx":0.0017,"nx":28,"ny":28,"refTime":"2025-07-21T21:00:00:Z","depth":0,"parameterNumber":3,"parameterNumberName":"V-component_of_WINDS"},"data":[0,0,0,0,0,0,0,0,0,0,0,0,0,0,0,0,0,0,0,0,0,0,0,0,0,0,0,0,0,0,0,0,0,0,0,0,0,0,0,0,0,0,0,0,0,0,0,0,0,0,0,0,0,0,0,0,0,0,0.6549,0.6549,0,0.6567,0.6568,0.6568,0.6524,0.6523,0.6521,0.652,0.654,0.6542,0.6544,0,0,0,0,0,0,0,0,0,0,0,0,0,0.6476,0.6477,0.6549,0.6549,0.655,0.6567,0.6568,0.6568,0.6524,0.6523,0.6521,0.652,0.654,0.6542,0.6544,0,0,0,0,0,0,0,0,0,0,0,0,0,0.6502,0.6478,0.6549,0.653,0.6528,0.6567,0.6568,0.6568,0.6525,0.6523,0.6521,0.6519,0.6539,0.6542,0.6544,0.6603,0,0,0.6553,0.6554,0,0,0,0,0,0,0,0,0.6501,0.6505,0.6533,0.6531,0.653,0.6541,0.6549,0.658,0.6525,0.6526,0.652,0.6518,0.6542,0.6545,0.6553,0.6604,0.6605,0.6553,0.6555,0.6556,0.6557,0,0,0,0,0,0,0,0.6499,0.6504,0.6556,0.6533,0.6531,0.652,0.6522,0.6555,0.6546,0.6526,0.6523,0.6526,0.6541,0.655,0.6553,0.6605,0.6553,0.6555,0.6557,0.6558,0.6701,0.6703,0,0,0,0,0,0,0.65,0.6503,0.6556,0.6557,0.651,0.6523,0.6525,0.654,0.6545,0.6544,0.6527,0.6523,0.6547,0.655,0.6553,0.6619,0.6556,0.6558,0.656,0.6699,0.6702,0.6704,0,0,0,0,0,0,0.6498,0.6505,0.6555,0.6529,0.6535,0.6527,0.6544,0.6541,0.655,0.6546,0.6545,0.6538,0.6545,0.655,0.659,0.662,0.656,0.6562,0.6697,0.67,0.6703,0.6754,0,0,0,0,0,0,0.6496,0.6505,0.6527,0.653,0.6536,0.6592,0.6546,0.6543,0.6555,0.655,0.6556,0.6555,0.6544,0.6586,0.6593,0.6622,0.6564,0.6694,0.6698,0.6702,0.6749,0.6758,0.6766,0,0,0,0,0,0.6494,0.6542,0.6529,0.6535,0.6564,0.6594,0.6597,0.6583,0.6558,0.6579,0.6577,0.6555,0.6616,0.6591,0.6598,0.6629,0.6692,0.6697,0.6702,0.6746,0.6757,0.6766,0,0,0,0,0,0,0.6544,0.6542,0.6527,0.6577,0.6586,0.6586,0.6614,0.6595,0.6612,0.6606,0.6588,0.659,0.6633,0.6635,0.6607,0.6684,0.6649,0.6656,0.6681,0.6691,0.6699,0.6697,0.6566,0,0,0,0,0,0.6561,0.6585,0.6582,0.6627,0.6631,0.6622,0.6634,0.6622,0.663,0.6634,0.6634,0.6643,0.6663,0.6678,0.6697,0.675,0.6749,0.6775,0.6783,0.679,0.6795,0.682,0.683,0.672,0.672,0.672,0,0,0.6596,0.6598,0.6614,0.6637,0.6642,0.6666,0.6625,0.6654,0.6671,0.6638,0.6675,0.6676,0.6685,0.673,0.6751,0.6734,0.6825,0.6796,0.6802,0.6803,0.6826,0.6836,0.6845,0.6723,0.6723,0.6722,0,0,0.6672,0.6677,0.6713,0.6718,0.6725,0.6718,0.6727,0.673,0.6728,0.6765,0.674,0.6761,0.6798,0.6804,0.6812,0.6887,0.6867,0.6894,0.6937,0.6961,0.697,0.6978,0.7001,0.7011,0.69,0.69,0.69,0,0.6715,0.675,0.6734,0.6762,0.6772,0.6742,0.6777,0.6784,0.6798,0.6805,0.6785,0.6829,0.6833,0.6878,0.6896,0.6905,0.6912,0.6893,0.697,0.6978,0.6984,0.7007,0.7016,0.6903,0.6903,0.6902,0.6902,0,0.6801,0.6826,0.6854,0.6865,0.6878,0.6911,0.6898,0.6913,0.69,0.6895,0.6931,0.6935,0.6952,0.6963,0.6951,0.7006,0.6994,0.6973,0.6938,0.6998,0.7019,0.7027,0.6907,0.6906,0.6905,0.6905,0,0,0.6909,0.6909,0.692,0.6923,0.6928,0.6947,0.6977,0.6994,0.7005,0.7016,0.7039,0.707,0.7049,0.7058,0.7047,0.7069,0.7124,0.7044,0.7044,0.7056,0.7181,0.7195,0.7205,0.7111,0.7113,0.7114,0.7179,0,0.6981,0.7031,0.7016,0.7066,0.7087,0.7059,0.7085,0.709,0.7086,0.7103,0.7099,0.7119,0.7092,0.7097,0.7117,0.7113,0.7148,0.7109,0.7131,0.7132,0.7127,0.7217,0.7232,0.7293,0.7188,0.7189,0.719,0,0.7072,0.7083,0.7135,0.7134,0.7142,0.7165,0.7177,0.7195,0.72,0.7195,0.7204,0.7187,0.7215,0.7182,0.7219,0.7192,0.7201,0.72,0.7202,0.7201,0.7163,0.7216,0.7313,0.7321,0.7203,0.7202,0.7201,0,0.7141,0.717,0.7204,0.7208,0.7209,0.7225,0.7226,0.7229,0.7239,0.725,0.7255,0.727,0.7278,0.7289,0.7276,0.7253,0.7315,0.728,0.731,0.731,0.7322,0.7321,0.7419,0.7333,0.7332,0.7332,0.7332,0,0.7222,0.7254,0.7234,0.7255,0.7289,0.7272,0.7306,0.7304,0.7307,0.7326,0.7303,0.7321,0.7305,0.7321,0.7312,0.7342,0.7347,0.7342,0.7339,0.7343,0.7343,0.7346,0.7341,0.7335,0.7334,0.7334,0.7333,0,0.7304,0.7293,0.7327,0.7323,0.7323,0.7349,0.7345,0.7364,0.7357,0.7381,0.7386,0.7376,0.7394,0.7383,0.7402,0.7395,0.7434,0.7427,0.7432,0.7429,0.7458,0.7454,0.7559,0.757,0.7479,0.748,0.7481,0,0.7355,0.7378,0.7377,0.7387,0.7389,0.7407,0.7415,0.7399,0.7409,0.7415,0.7432,0.7448,0.746,0.749,0.7484,0.7498,0.7488,0.7524,0.749,0.7492,0.7485,0.7483,0.7484,0.753,0.7532,0.7532,0.7533,0,0.7445,0.7437,0.7451,0.7462,0.7473,0.7481,0.7488,0.7498,0.7481,0.7493,0.751,0.7519,0.7537,0.7552,0.7563,0.7564,0.7545,0.7544,0.7551,0.7554,0.7555,0.7551,0.7447,0.7541,0.754,0.754,0.7539,0.7539,0.7511,0.7529,0.753,0.7545,0.7547,0.7553,0.7569,0.7564,0.7578,0.759,0.758,0.76,0.7602,0.7614,0.7617,0.7632,0.7618,0.7629,0.7631,0.7633,0.7635,0.7554,0.7635,0.7634,0.7634,0.7634,0.7634,0,0.7597,0.7595,0.761,0.7618,0.7629,0.761,0.7615,0.7626,0.7643,0.7647,0.7658,0.7677,0.7691,0.7686,0.7698,0.7711,0.7702,0.7714,0.7712,0.7711,0.7649,0.7641,0.7721,0.7721,0.7721,0.7721,0.7721,0.7721,0.7643,0.7671,0.7664,0.7693,0.7691,0.7709,0.7714,0.7718,0.772,0.7742,0.7753,0.7749,0.7749,0.776,0.7772,0.777,0.7774,0.7789,0.7783,0.7725,0.7716,0.7708,0.77,0.7791,0.7791,0.7844,0.7844,0.7845]}]]